Date,TemperatureHighF,TemperatureAvgF,TemperatureLowF,DewpointHighF,DewpointAvgF,DewpointLowF,HumidityHigh,HumidityAvg,HumidityLow,PressureMaxIn,PressureMinIn,WindSpeedMaxMPH,WindSpeedAvgMPH,GustSpeedMaxMPH,PrecipitationSumIn
2013-1-1,73,63,53,-100,-100,-100,0,0,100,0.00,40.00,7,1,9,0.00
2013-1-2,53,47,41,-100,-100,-100,0,0,100,0.00,40.00,4,0,5,0.00
2013-1-3,46,39,32,-100,-100,-100,0,0,100,0.00,40.00,3,0,6,0.00
2013-1-4,56,40,29,-100,-100,-100,0,0,100,0.00,40.00,4,0,5,0.00
2013-1-5,49,43,35,-100,-100,-100,0,0,100,0.00,40.00,0,0,2,0.00
2013-1-6,50,45,38,-100,-100,-100,0,0,100,0.00,40.00,2,0,5,0.00
2013-1-7,58,42,31,-100,-100,-100,0,0,100,0.00,40.00,1,0,3,0.00
2013-1-8,66,54,39,-100,-100,-100,0,0,100,0.00,40.00,0,0,2,0.00
2013-1-9,68,64,56,-100,-100,-100,0,0,100,0.00,40.00,0,0,2,0.00
2013-1-10,71,67,62,-100,-100,-100,0,0,100,0.00,40.00,3,0,7,0.00
2013-1-11,79,69,60,-100,-100,-100,0,0,100,0.00,40.00,7,1,10,0.00
2013-1-12,76,70,68,-100,-100,-100,0,0,100,0.00,40.00,5,1,7,0.00
2013-1-13,76,71,59,-100,-100,-100,0,0,100,0.00,40.00,7,2,11,0.00
2013-1-14,59,49,41,-100,-100,-100,0,0,100,0.00,40.00,3,0,8,0.00
2013-1-15,54,48,42,-100,-100,-100,0,0,100,0.00,40.00,1,0,5,0.00
2013-1-16,51,45,41,-100,-100,-100,0,0,100,0.00,40.00,2,0,5,0.00
2013-1-17,48,40,34,-100,-100,-100,0,0,100,0.00,40.00,5,1,9,0.00
2013-1-18,56,41,31,-100,-100,-100,0,0,100,0.00,40.00,4,0,6,0.00
2013-1-19,61,43,29,-100,-100,-100,0,0,100,0.00,40.00,1,0,3,0.00
2013-1-20,66,46,31,-100,-100,-100,0,0,100,0.00,40.00,3,0,5,0.00
2013-1-21,66,48,32,-100,-100,-100,0,0,100,0.00,40.00,5,0,6,0.00
2013-1-22,58,44,35,-100,-100,-100,0,0,100,0.00,40.00,2,0,4,0.00
2013-1-23,67,48,30,-100,-100,-100,0,0,100,0.00,40.00,0,0,4,0.00
2013-1-24,73,56,38,-100,-100,-100,0,0,100,0.00,40.00,3,0,5,0.00
2013-1-25,71,57,44,-100,-100,-100,0,0,100,0.00,40.00,7,1,9,0.00
2013-1-26,69,57,49,-100,-100,-100,0,0,100,0.00,40.00,2,0,2,0.00
2013-1-27,71,56,42,-100,-100,-100,0,0,100,0.00,40.00,3,0,5,0.00
2013-1-28,76,62,49,-100,-100,-100,0,0,100,0.00,40.00,4,0,6,0.00
2013-1-29,76,70,65,-100,-100,-100,0,0,100,0.00,40.00,6,1,8,0.00
2013-1-30,73,60,42,-100,-100,-100,0,0,100,0.00,40.00,8,2,12,0.00
2013-1-31,49,39,32,-100,-100,-100,0,0,100,0.00,40.00,0,0,2,0.00
2013-2-1,58,42,31,-100,-100,-100,0,0,100,0.00,40.00,3,0,9,0.00
2013-2-2,67,46,27,-100,-100,-100,0,0,100,0.00,40.00,3,0,7,0.00
2013-2-3,67,49,36,-100,-100,-100,0,0,100,0.00,40.00,1,0,5,0.00
2013-2-4,62,48,34,-100,-100,-100,0,0,100,0.00,40.00,1,0,2,0.00
2013-2-5,69,58,50,-100,-100,-100,0,0,100,0.00,40.00,1,0,3,0.00
2013-2-6,73,59,49,-100,-100,-100,0,0,100,0.00,40.00,3,0,5,0.00
2013-2-7,72,61,51,-100,-100,-100,0,0,100,0.00,40.00,5,0,7,0.00
2013-2-8,72,58,47,-100,-100,-100,0,0,100,0.00,40.00,7,1,7,0.00
2013-2-9,68,53,40,-100,-100,-100,0,0,100,0.00,40.00,2,0,5,0.00
2013-2-10,70,63,51,-100,-100,-100,0,0,100,0.00,40.00,5,1,12,0.00
2013-2-11,70,61,55,-100,-100,-100,0,0,100,0.00,40.00,4,0,7,0.00
2013-2-12,61,57,54,-100,-100,-100,0,0,100,0.00,40.00,1,0,3,0.00
2013-2-13,62,50,38,-100,-100,-100,0,0,100,0.00,40.00,2,0,6,0.00
2013-2-14,58,44,34,-100,-100,-100,0,0,100,0.00,40.00,2,0,6,0.00
2013-2-15,65,46,31,-100,-100,-100,0,0,100,0.00,40.00,3,0,4,0.00
2013-2-16,48,42,28,-100,-100,-100,0,0,100,0.00,40.00,3,0,10,0.00
2013-2-17,53,35,24,-100,-100,-100,0,0,100,0.00,40.00,0,0,4,0.00
2013-2-18,65,50,29,-100,-100,-100,0,0,100,0.00,40.00,7,1,9,0.00
2013-2-19,65,57,43,-100,-100,-100,0,0,100,0.00,40.00,5,1,9,0.00
2013-2-20,56,44,35,-100,-100,-100,0,0,100,0.00,40.00,3,0,5,0.00
2013-2-21,67,54,34,-100,-100,-100,0,0,100,0.00,40.00,6,1,9,0.00
2013-2-22,69,63,58,-100,-100,-100,0,0,100,0.00,40.00,5,0,9,0.00
2013-2-23,58,56,52,-100,-100,-100,0,0,100,0.00,40.00,2,0,4,0.00
2013-2-24,71,57,44,-100,-100,-100,0,0,100,0.00,40.00,3,0,4,0.00
2013-2-25,66,60,55,-100,-100,-100,0,0,100,0.00,40.00,3,0,5,0.00
2013-2-26,64,53,44,-100,-100,-100,0,0,100,0.00,40.00,6,1,10,0.00
2013-2-27,65,50,41,-100,-100,-100,0,0,100,0.00,40.00,5,0,8,0.00
2013-2-28,58,46,35,-100,-100,-100,0,0,100,0.00,40.00,5,0,7,0.00
2013-3-1,59,45,34,-100,-100,-100,0,0,100,0.00,40.00,7,1,7,0.00
2013-3-2,45,36,28,-100,-100,-100,0,0,100,0.00,40.00,4,0,8,0.00
2013-3-3,52,37,27,-100,-100,-100,0,0,100,0.00,40.00,5,1,8,0.00
2013-3-4,67,48,28,-100,-100,-100,0,0,100,0.00,40.00,7,1,10,0.00
2013-3-5,73,58,41,-100,-100,-100,0,0,100,0.00,40.00,7,1,11,0.00
2013-3-6,56,42,33,-100,-100,-100,0,0,100,0.00,40.00,6,1,8,0.00
2013-3-7,64,45,31,-100,-100,-100,0,0,100,0.00,40.00,4,0,5,0.00
2013-3-8,71,49,31,-100,-100,-100,0,0,100,0.00,40.00,3,0,4,0.00
2013-3-9,74,57,42,-100,-100,-100,0,0,100,0.00,40.00,5,0,8,0.00
2013-3-10,75,64,54,-100,-100,-100,0,0,100,0.00,40.00,7,1,11,0.00
2013-3-11,66,54,39,-100,-100,-100,0,0,100,0.00,40.00,7,1,7,0.00
2013-3-12,52,41,35,-100,-100,-100,0,0,100,0.00,40.00,1,0,5,0.00
2013-3-13,50,39,33,-100,-100,-100,0,0,100,0.00,40.00,4,0,4,0.00
2013-3-14,47,40,36,-100,-100,-100,0,0,100,0.00,40.00,1,0,4,0.00
2013-3-15,76,53,33,-100,-100,-100,0,0,100,0.00,40.00,6,1,9,0.00
2013-3-16,75,58,42,-100,-100,-100,0,0,100,0.00,40.00,5,1,9,0.00
2013-3-17,74,59,46,-100,-100,-100,0,0,100,0.00,40.00,4,0,6,0.00
2013-3-18,82,68,59,-100,-100,-100,0,0,100,0.00,40.00,6,1,8,0.00
2013-3-19,75,63,52,-100,-100,-100,0,0,100,0.00,40.00,4,1,5,0.00
2013-3-20,63,53,39,-100,-100,-100,0,0,100,0.00,40.00,3,0,6,0.00
2013-3-21,60,42,33,-100,-100,-100,0,0,100,0.00,40.00,1,0,4,0.00
2013-3-22,68,57,47,-100,-100,-100,0,0,100,0.00,40.00,5,0,8,0.00
2013-3-23,73,64,59,-100,-100,-100,0,0,100,0.00,40.00,4,0,7,0.00
2013-3-24,79,65,56,-100,-100,-100,0,0,100,0.00,40.00,4,0,9,0.00
2013-3-25,44,40,34,-100,-100,-100,0,0,100,0.00,40.00,2,0,5,0.00
2013-3-26,45,34,28,-100,-100,-100,0,0,100,0.00,40.00,1,0,3,0.00
2013-3-27,57,37,26,-100,-100,-100,0,0,100,0.00,40.00,2,0,6,0.00
2013-3-28,70,48,29,-100,-100,-100,0,0,100,0.00,40.00,2,0,5,0.00
2013-3-29,75,53,34,-100,-100,-100,0,0,100,0.00,40.00,4,0,8,0.00
2013-3-30,76,60,44,-100,-100,-100,0,0,100,0.00,40.00,9,1,9,0.00
2013-3-31,81,63,49,-100,-100,-100,0,0,100,0.00,40.00,5,1,9,0.00
2013-4-1,73,60,51,-100,-100,-100,0,0,100,0.00,40.00,3,0,6,0.00
2013-4-2,80,58,42,-100,-100,-100,0,0,100,0.00,40.00,2,0,4,0.00
2013-4-3,60,55,51,-100,-100,-100,0,0,100,0.00,40.00,3,0,13,0.00
2013-4-4,69,57,52,-100,-100,-100,0,0,100,0.00,40.00,5,0,5,0.00
2013-4-5,67,55,46,-100,-100,-100,0,0,100,0.00,40.00,6,1,8,0.00
2013-4-6,76,55,37,-100,-100,-100,0,0,100,0.00,40.00,2,0,6,0.00
2013-4-7,78,59,41,-100,-100,-100,0,0,100,0.00,40.00,5,0,8,0.00
2013-4-8,81,68,54,-100,-100,-100,0,0,100,0.00,40.00,8,1,8,0.00
2013-4-9,83,74,68,-100,-100,-100,0,0,100,0.00,40.00,4,1,10,0.00
2013-4-10,81,75,62,-100,-100,-100,0,0,100,0.00,40.00,6,2,8,0.00
2013-4-11,82,71,58,-100,-100,-100,0,0,100,0.00,40.00,11,1,14,0.00
2013-4-12,72,59,49,-100,-100,-100,0,0,100,0.00,40.00,5,1,9,0.00
2013-4-13,80,61,42,-100,-100,-100,0,0,100,0.00,40.00,4,0,5,0.00
2013-4-14,65,60,56,-100,-100,-100,0,0,100,0.00,40.00,3,0,5,0.00
2013-4-15,78,70,61,-100,-100,-100,0,0,100,0.00,40.00,3,0,4,0.00
2013-4-16,84,74,66,-100,-100,-100,0,0,100,0.00,40.00,2,0,6,0.00
2013-4-17,84,72,63,-100,-100,-100,0,0,100,0.00,40.00,3,0,6,0.00
2013-4-18,81,72,62,-100,-100,-100,0,0,100,0.00,40.00,4,1,7,0.00
2013-4-19,75,55,42,-100,-100,-100,0,0,100,0.00,40.00,4,0,9,0.00
2013-4-20,68,50,35,-100,-100,-100,0,0,100,0.00,40.00,3,0,6,0.00
2013-4-21,74,56,41,-100,-100,-100,0,0,100,0.00,40.00,2,0,6,0.00
2013-4-22,78,62,46,-100,-100,-100,0,0,100,0.00,40.00,2,0,4,0.00
2013-4-23,80,65,52,-100,-100,-100,0,0,100,0.00,40.00,2,0,4,0.00
2013-4-24,71,66,58,-100,-100,-100,0,0,100,0.00,40.00,0,0,0,0.00
2013-4-25,72,60,52,-100,-100,-100,0,0,100,0.00,40.00,3,0,6,0.00
2013-4-26,81,63,45,-100,-100,-100,0,0,100,0.00,40.00,3,0,3,0.00
2013-4-27,82,69,56,-100,-100,-100,0,0,100,0.00,40.00,3,0,5,0.00
2013-4-28,78,69,64,-100,-100,-100,0,0,100,0.00,40.00,3,0,4,0.00
2013-4-29,82,70,63,-100,-100,-100,0,0,100,0.00,40.00,1,0,3,0.00
2013-4-30,82,68,61,-100,-100,-100,0,0,100,0.00,40.00,2,0,10,0.00
2013-5-1,70,66,62,-100,-100,-100,0,0,100,0.00,40.00,6,1,8,0.00
2013-5-2,71,66,62,-100,-100,-100,0,0,100,0.00,40.00,3,0,5,0.00
2013-5-3,71,62,47,-100,-100,-100,0,0,100,0.00,40.00,4,0,7,0.00
2013-5-4,69,54,42,-100,-100,-100,0,0,100,0.00,40.00,3,0,6,0.00
2013-5-5,64,54,46,-100,-100,-100,0,0,100,0.00,40.00,7,0,7,0.00
2013-5-6,71,57,42,-100,-100,-100,0,0,100,0.00,40.00,2,0,5,0.00
2013-5-7,75,61,47,-100,-100,-100,0,0,100,0.00,40.00,1,0,4,0.00
2013-5-8,82,66,51,-100,-100,-100,0,0,100,0.00,40.00,0,0,0,0.00
2013-5-9,83,68,54,-100,-100,-100,0,0,100,0.00,40.00,0,0,0,0.00
2013-5-10,74,65,62,-100,-100,-100,0,0,100,0.00,40.00,2,0,6,0.00
2013-5-11,73,65,58,-100,-100,-100,0,0,100,0.00,40.00,0,0,0,0.00
2013-5-12,78,66,57,-100,-100,-100,0,0,100,0.00,40.00,1,0,4,0.00
2013-5-13,77,61,46,-100,-100,-100,0,0,100,0.00,40.00,4,0,5,0.00
2013-5-14,85,66,47,-100,-100,-100,0,0,100,0.00,40.00,2,0,4,0.00
2013-5-15,86,68,53,-100,-100,-100,0,0,100,0.00,40.00,2,0,3,0.00
2013-5-16,82,65,61,-100,-100,-100,0,0,100,0.00,40.00,3,0,5,0.00
2013-5-17,83,72,64,-100,-100,-100,0,0,100,0.00,40.00,3,0,6,0.00
2013-5-18,84,77,70,-100,-100,-100,0,0,100,0.00,40.00,3,0,4,0.00
2013-5-19,81,76,71,-100,-100,-100,0,0,100,0.00,40.00,2,0,4,0.00
2013-5-20,90,77,69,-100,-100,-100,0,0,100,0.00,40.00,2,0,4,0.00
2013-5-21,87,75,66,-100,-100,-100,0,0,100,0.00,40.00,3,0,5,0.00
2013-5-22,81,71,63,-100,-100,-100,0,0,100,0.00,40.00,0,0,4,0.00
2013-5-23,90,74,62,-100,-100,-100,0,0,100,0.00,40.00,1,0,3,0.00
2013-5-24,85,72,62,-100,-100,-100,0,0,100,0.00,40.00,2,0,4,0.00
2013-5-25,83,63,53,-100,-100,-100,0,0,100,0.00,40.00,0,0,1,0.00
2013-5-26,85,69,57,-100,-100,-100,0,0,100,0.00,40.00,1,0,2,0.00
2013-5-27,81,68,62,-100,-100,-100,0,0,100,0.00,40.00,1,0,3,0.00
2013-5-28,85,70,57,-100,-100,-100,0,0,100,0.00,40.00,2,0,5,0.00
2013-5-29,87,76,66,-100,-100,-100,0,0,100,0.00,40.00,4,0,7,0.00
2013-5-30,86,77,71,-100,-100,-100,0,0,100,0.00,40.00,4,0,6,0.00
2013-5-31,87,77,71,-100,-100,-100,0,0,100,0.00,40.00,5,0,6,0.00
2013-6-1,86,77,69,-100,-100,-100,0,0,100,0.00,40.00,3,0,4,0.00
2013-6-2,94,78,69,-100,-100,-100,0,0,100,0.00,40.00,4,0,4,0.00
2013-6-3,90,75,68,-100,-100,-100,0,0,100,0.00,40.00,0,0,3,0.00
2013-6-4,94,78,68,-100,-100,-100,0,0,100,0.00,40.00,2,0,3,0.00
2013-6-5,90,77,67,-100,-100,-100,0,0,100,0.00,40.00,2,0,3,0.00
2013-6-6,87,73,63,-100,-100,-100,0,0,100,0.00,40.00,2,0,6,0.00
2013-6-7,83,72,68,-100,-100,-100,0,0,100,0.00,40.00,0,0,3,0.00
2013-6-8,85,75,66,-100,-100,-100,0,0,100,0.00,40.00,2,0,5,0.00
2013-6-9,78,73,68,-100,-100,-100,0,0,100,0.00,40.00,3,0,5,0.00
2013-6-10,83,74,69,-100,-100,-100,0,0,100,0.00,40.00,0,0,1,0.00
2013-6-11,94,80,71,-100,-100,-100,0,0,100,0.00,40.00,0,0,0,0.00
2013-6-12,94,81,70,-100,-100,-100,0,0,100,0.00,40.00,0,0,2,0.00
2013-6-13,94,82,73,-100,-100,-100,0,0,100,0.00,40.00,2,0,3,0.00
2013-6-14,91,80,71,-100,-100,-100,0,0,100,0.00,40.00,3,0,5,0.00
2013-6-15,92,79,66,-100,-100,-100,0,0,100,0.00,40.00,0,0,2,0.00
2013-6-16,94,82,73,-100,-100,-100,0,0,100,0.00,40.00,1,0,2,0.00
2013-6-17,91,81,73,-100,-100,-100,0,0,100,0.00,40.00,3,0,4,0.00
2013-6-18,90,80,71,-100,-100,-100,0,0,100,0.00,40.00,2,0,5,0.00
2013-6-19,81,75,69,-100,-100,-100,0,0,100,0.00,40.00,0,0,1,0.00
2013-6-20,91,76,67,-100,-100,-100,0,0,100,0.00,40.00,2,0,4,0.00
2013-6-22,91,84,75,-100,-100,-100,0,0,100,0.00,40.00,2,0,4,0.00
2013-6-23,90,76,69,-100,-100,-100,0,0,100,0.00,40.00,1,0,6,0.00
2013-6-24,84,77,72,-100,-100,-100,0,0,100,0.00,40.00,0,0,4,0.00
2013-6-25,94,79,68,-100,-100,-100,0,0,100,0.00,40.00,2,0,4,0.00
2013-6-26,92,80,70,-100,-100,-100,0,0,100,0.00,40.00,3,0,4,0.00
2013-6-27,92,81,72,-100,-100,-100,0,0,100,0.00,40.00,2,0,5,0.00
2013-6-28,95,83,73,-100,-100,-100,0,0,100,0.00,40.00,3,0,5,0.00
2013-6-29,91,80,71,-100,-100,-100,0,0,100,0.00,40.00,2,0,3,0.00
2013-6-30,90,78,70,-100,-100,-100,0,0,100,0.00,40.00,0,0,2,0.00
2013-7-1,90,76,68,-100,-100,-100,0,0,100,0.00,40.00,1,0,2,0.00
2013-7-2,90,75,64,-100,-100,-100,0,0,100,0.00,40.00,0,0,0,0.00
2013-7-3,85,74,70,-100,-100,-100,0,0,100,0.00,40.00,3,0,4,0.00
2013-7-4,85,76,71,-100,-100,-100,0,0,100,0.00,40.00,0,0,3,0.00
2013-7-5,76,74,71,-100,-100,-100,0,0,100,0.00,40.00,0,0,0,0.00
2013-7-6,77,72,70,-100,-100,-100,0,0,100,0.00,40.00,0,0,0,0.00
2013-7-7,79,74,73,-100,-100,-100,0,0,100,0.00,40.00,0,0,0,0.00
2013-7-8,82,75,72,-100,-100,-100,0,0,100,0.00,40.00,0,0,0,0.00
2013-7-9,89,78,69,-100,-100,-100,0,0,100,0.00,40.00,2,0,3,0.00
2013-7-10,89,75,71,-100,-100,-100,0,0,100,0.00,40.00,0,0,1,0.00
2013-7-11,79,74,71,-100,-100,-100,0,0,100,0.00,40.00,0,0,0,0.00
2013-7-12,88,74,69,-100,-100,-100,0,0,100,0.00,40.00,0,0,2,0.00
2013-7-13,91,75,68,-100,-100,-100,0,0,100,0.00,40.00,3,0,5,0.00
2013-7-14,90,77,68,-100,-100,-100,0,0,100,0.00,40.00,3,0,4,0.00
2013-7-15,86,76,69,-100,-100,-100,0,0,100,0.00,40.00,4,0,7,0.00
2013-7-16,89,78,71,-100,-100,-100,0,0,100,0.00,40.00,4,0,5,0.00
2013-7-17,91,80,70,-100,-100,-100,0,0,100,0.00,40.00,2,0,5,0.00
2013-7-18,91,78,72,-100,-100,-100,0,0,100,0.00,40.00,0,0,1,0.00
2013-7-19,89,76,68,-100,-100,-100,0,0,100,0.00,40.00,0,0,2,0.00
2013-7-20,83,76,71,-100,-100,-100,0,0,100,0.00,40.00,0,0,0,0.00
2013-7-21,85,76,72,-100,-100,-100,0,0,100,0.00,40.00,2,0,4,0.00
2013-7-22,86,74,71,-100,-100,-100,0,0,100,0.00,40.00,2,0,3,0.00
2013-7-23,86,74,70,-100,-100,-100,0,0,100,0.00,40.00,4,0,7,0.00
2013-7-24,84,75,71,-100,-100,-100,0,0,100,0.00,40.00,0,0,1,0.00
2013-7-25,82,74,71,-100,-100,-100,0,0,100,0.00,40.00,0,0,0,0.00
2013-7-26,84,74,68,-100,-100,-100,0,0,100,0.00,40.00,0,0,0,0.00
2013-7-27,79,74,70,-100,-100,-100,0,0,100,0.00,40.00,0,0,0,0.00
2013-7-28,80,75,71,-100,-100,-100,0,0,100,0.00,40.00,0,0,0,0.00
2013-7-29,92,78,72,-100,-100,-100,0,0,100,0.00,40.00,0,0,0,0.00
2013-7-30,80,75,72,-100,-100,-100,0,0,100,0.00,40.00,0,0,0,0.00
2013-7-31,87,78,72,-100,-100,-100,0,0,100,0.00,40.00,0,0,0,0.00
2013-8-1,91,77,73,-100,-100,-100,0,0,100,0.00,40.00,4,0,7,0.00
2013-8-2,86,75,68,-100,-100,-100,0,0,100,0.00,40.00,0,0,0,0.00
2013-8-3,89,78,69,-100,-100,-100,0,0,100,0.00,40.00,0,0,0,0.00
2013-8-4,92,80,73,-100,-100,-100,0,0,100,0.00,40.00,0,0,3,0.00
2013-8-5,94,77,72,-100,-100,-100,0,0,100,0.00,40.00,2,0,3,0.00
2013-8-6,92,79,71,-100,-100,-100,0,0,100,0.00,40.00,2,0,5,0.00
2013-8-7,90,77,70,-100,-100,-100,0,0,100,0.00,40.00,0,0,0,0.00
2013-8-8,92,80,73,-100,-100,-100,0,0,100,0.00,40.00,0,0,0,0.00
2013-8-9,88,80,75,-100,-100,-100,0,0,100,0.00,40.00,1,0,4,0.00
2013-8-10,89,79,71,-100,-100,-100,0,0,100,0.00,40.00,0,0,0,0.00
2013-8-11,90,77,71,-100,-100,-100,0,0,100,0.00,40.00,0,0,0,0.00
2013-8-12,82,76,71,-100,-100,-100,0,0,100,0.00,40.00,0,0,0,0.00
2013-8-13,88,75,71,-100,-100,-100,0,0,100,0.00,40.00,0,0,2,0.00
2013-8-18,74,71,69,-100,-100,-100,0,0,100,0.00,40.00,0,0,1,0.00
2013-8-19,81,70,71,-100,-100,-100,0,0,100,0.00,40.00,0,0,0,0.00
2013-8-20,85,74,68,-100,-100,-100,0,0,100,0.00,40.00,0,0,0,0.00
2013-8-21,86,76,70,-100,-100,-100,0,0,100,0.00,40.00,0,0,2,0.00
2013-8-22,89,78,68,-100,-100,-100,0,0,100,0.00,40.00,2,0,4,0.00
2013-8-23,84,77,70,-100,-100,-100,0,0,100,0.00,40.00,0,0,3,0.00
2013-8-24,83,76,69,-100,-100,-100,0,0,100,0.00,40.00,0,0,0,0.00
2013-8-30,69,69,69,-100,-100,-100,0,0,100,0.00,40.00,0,0,0,0.00
2013-9-1,75,74,73,-100,-100,-100,0,0,100,0.00,40.00,0,0,0,0.00
2013-9-2,89,78,70,-100,-100,-100,0,0,100,0.00,40.00,0,0,1,0.00
2013-9-3,92,76,71,-100,-100,-100,0,0,100,0.00,40.00,0,0,0,0.00
2013-9-4,85,75,68,-100,-100,-100,0,0,100,0.00,40.00,0,0,0,0.00
2013-9-5,74,72,70,-100,-100,-100,0,0,100,0.00,40.00,0,0,0,0.00
2013-9-6,78,73,69,-100,-100,-100,0,0,100,0.00,40.00,0,0,0,0.00
2013-9-7,75,70,65,-100,-100,-100,0,0,100,0.00,40.00,0,0,0,0.00
2013-9-8,79,73,66,-100,-100,-100,0,0,100,0.00,40.00,0,0,0,0.00
2013-9-9,85,74,68,-100,-100,-100,0,0,100,0.00,40.00,0,0,0,0.00
2013-9-10,90,77,69,-100,-100,-100,0,0,100,0.00,40.00,1,0,4,0.00
2013-9-11,89,77,68,-100,-100,-100,0,0,100,0.00,40.00,2,0,4,0.00
2013-9-12,90,76,66,-100,-100,-100,0,0,100,0.00,40.00,0,0,0,0.00
2013-9-16,90,77,67,-100,-100,-100,0,0,100,0.00,40.00,2,0,2,0.00
2013-9-17,91,79,68,-100,-100,-100,0,0,100,0.00,40.00,3,0,3,0.00
2013-9-18,75,73,73,-100,-100,-100,0,0,100,0.00,40.00,0,0,0,0.00
2013-9-19,89,78,71,-100,-100,-100,0,0,100,0.00,40.00,1,0,4,0.00
2013-9-20,87,76,68,-100,-100,-100,0,0,100,0.00,40.00,1,0,4,0.00
2013-9-21,76,73,69,-100,-100,-100,0,0,100,0.00,40.00,0,0,0,0.00
2013-9-22,77,69,66,-100,-100,-100,0,0,100,0.00,40.00,0,0,3,0.00
2013-9-23,85,75,63,-100,-100,-100,0,0,100,0.00,40.00,0,0,0,0.00
2013-9-24,83,74,69,-100,-100,-100,0,0,100,0.00,40.00,0,0,0,0.00
2013-9-25,83,75,70,-100,-100,-100,0,0,100,0.00,40.00,0,0,2,0.00
2013-9-26,86,74,65,-100,-100,-100,0,0,100,0.00,40.00,0,0,0,0.00
2013-9-27,82,73,65,-100,-100,-100,0,0,100,0.00,40.00,0,0,0,0.00
2013-9-28,81,66,57,-100,-100,-100,0,0,100,0.00,40.00,0,0,0,0.00
2013-9-29,80,68,58,-100,-100,-100,0,0,100,0.00,40.00,0,0,0,0.00
2013-9-30,79,72,66,-100,-100,-100,0,0,100,0.00,40.00,0,0,0,0.00
2013-10-1,75,72,70,-100,-100,-100,0,0,100,0.00,40.00,0,0,0,0.00
2013-10-2,80,73,68,-100,-100,-100,0,0,100,0.00,40.00,0,0,0,0.00
2013-10-3,85,76,69,-100,-100,-100,0,0,100,0.00,40.00,0,0,0,0.00
2013-10-4,87,75,69,-100,-100,-100,0,0,100,0.00,40.00,0,0,0,0.00
2013-10-5,84,74,69,-100,-100,-100,0,0,100,0.00,40.00,0,0,0,0.00
2013-10-6,76,72,65,-100,-100,-100,0,0,100,0.00,40.00,0,0,1,0.00
2013-10-7,73,62,59,-100,-100,-100,0,0,100,0.00,40.00,4,0,4,0.00
2013-10-8,75,60,52,-100,-100,-100,0,0,100,0.00,40.00,0,0,0,0.00
2013-10-9,77,68,60,-100,-100,-100,0,0,100,0.00,40.00,0,0,0,0.00
2013-10-10,81,69,64,-100,-100,-100,0,0,100,0.00,40.00,0,0,0,0.00
2013-10-11,84,69,59,-100,-100,-100,0,0,100,0.00,40.00,0,0,0,0.00
2013-10-12,84,70,60,-100,-100,-100,0,0,100,0.00,40.00,0,0,0,0.00
2013-10-13,83,72,64,-100,-100,-100,0,0,100,0.00,40.00,0,0,0,0.00
2013-10-14,83,69,60,-100,-100,-100,0,0,100,0.00,40.00,0,0,0,0.00
2013-10-15,82,69,62,-100,-100,-100,0,0,100,0.00,40.00,0,0,0,0.00
2013-10-16,84,72,60,-100,-100,-100,0,0,100,0.00,40.00,0,0,0,0.00
2013-10-17,79,72,65,-100,-100,-100,0,0,100,0.00,40.00,0,0,0,0.00
2013-10-18,73,65,62,-100,-100,-100,0,0,100,0.00,40.00,0,0,0,0.00
2013-10-19,67,61,56,-100,-100,-100,0,0,100,0.00,40.00,0,0,0,0.00
2013-10-20,70,59,52,-100,-100,-100,0,0,100,0.00,40.00,0,0,0,0.00
2013-10-21,70,60,51,-100,-100,-100,0,0,100,0.00,40.00,0,0,0,0.00
2013-10-22,76,65,57,-100,-100,-100,0,0,100,0.00,40.00,0,0,0,0.00
2013-10-23,66,54,47,-100,-100,-100,0,0,100,0.00,40.00,0,0,5,0.00
2013-10-24,72,51,40,-100,-100,-100,0,0,100,0.00,40.00,0,0,1,0.00
2013-10-25,58,50,42,-100,-100,-100,0,0,100,0.00,40.00,0,0,3,0.00
2013-10-26,56,44,35,-100,-100,-100,0,0,100,0.00,40.00,0,0,0,0.00
2013-10-27,72,56,42,-100,-100,-100,0,0,100,0.00,40.00,0,0,0,0.00
2013-10-28,79,63,51,-100,-100,-100,0,0,100,0.00,40.00,0,0,1,0.00
2013-10-29,78,64,49,-100,-100,-100,0,0,100,0.00,40.00,0,0,2,0.00
2013-10-30,78,64,51,-100,-100,-100,0,0,100,0.00,40.00,2,0,2,0.00
2013-11-7,65,57,49,-100,-100,-100,0,0,100,0.00,40.00,0,0,6,0.00
2013-11-8,58,44,38,-100,-100,-100,0,0,100,0.00,40.00,0,0,5,0.00
2013-11-9,70,53,38,-100,-100,-100,0,0,100,0.00,40.00,0,0,2,0.00
2013-11-10,72,60,48,-100,-100,-100,0,0,100,0.00,40.00,2,0,3,0.00
2013-11-11,75,56,41,-100,-100,-100,0,0,100,0.00,40.00,0,0,0,0.00
2013-11-12,69,52,42,-100,-100,-100,0,0,100,0.00,40.00,4,1,10,0.00
2013-11-13,38,34,32,-100,-100,-100,0,0,100,0.00,40.00,0,0,5,0.00
2013-11-18,62,60,56,-100,-100,-100,0,0,100,0.00,40.00,1,0,5,0.00
2013-11-19,60,52,39,-100,-100,-100,0,0,100,0.00,40.00,2,0,6,0.00
2013-11-20,68,53,35,-100,-100,-100,0,0,100,0.00,40.00,0,0,0,0.00
2013-11-21,69,59,49,-100,-100,-100,0,0,100,0.00,40.00,0,0,0,0.00
2013-11-22,75,67,56,-100,-100,-100,0,0,100,0.00,40.00,0,0,0,0.00
2013-11-23,65,56,46,-100,-100,-100,0,0,100,0.00,40.00,4,0,8,0.00
2013-11-24,46,41,38,-100,-100,-100,0,0,100,0.00,40.00,4,0,7,0.00
2013-11-25,54,46,36,-100,-100,-100,0,0,100,0.00,40.00,0,0,3,0.00
2013-11-26,60,50,43,-100,-100,-100,0,0,100,0.00,40.00,0,0,6,0.00
2013-11-27,42,33,28,-100,-100,-100,0,0,100,0.00,40.00,0,0,4,0.00
2013-11-28,30,27,25,-100,-100,-100,0,0,100,0.00,40.00,0,0,0,0.00
2013-11-29,49,33,24,-100,-100,-100,0,0,100,0.00,40.00,0,0,2,0.00
2013-11-30,52,34,27,-100,-100,-100,0,0,100,0.00,40.00,0,0,0,0.00
2013-12-1,60,46,33,-100,-100,-100,0,0,100,0.00,40.00,0,0,0,0.00
2013-12-2,71,57,42,-100,-100,-100,0,0,100,0.00,40.00,0,0,3,0.00
2013-12-3,72,64,52,-100,-100,-100,0,0,100,0.00,40.00,5,0,5,0.00
2013-12-4,79,71,67,-100,-100,-100,0,0,100,0.00,40.00,4,0,8,0.00
2013-12-5,77,73,71,-100,-100,-100,0,0,100,0.00,40.00,5,0,6,0.00
2013-12-6,80,71,48,-100,-100,-100,0,0,100,0.00,40.00,6,1,9,0.00
2013-12-7,47,40,39,-100,-100,-100,0,0,100,0.00,40.00,7,0,7,0.00
2013-12-8,56,46,41,-100,-100,-100,0,0,100,0.00,40.00,0,0,0,0.00
2013-12-9,61,55,52,-100,-100,-100,0,0,100,0.00,40.00,0,0,3,0.00
2013-12-10,52,42,32,-100,-100,-100,0,0,100,0.00,40.00,6,0,6,0.00
2013-12-11,59,44,31,-100,-100,-100,0,0,100,0.00,40.00,1,0,3,0.00
2013-12-12,52,41,30,-100,-100,-100,0,0,100,0.00,40.00,4,0,7,0.00
2013-12-13,57,44,27,-100,-100,-100,0,0,100,0.00,40.00,0,0,1,0.00
2013-12-14,74,59,49,-100,-100,-100,0,0,100,0.00,40.00,3,0,5,0.00
2013-12-15,47,41,29,-100,-100,-100,0,0,100,0.00,40.00,4,1,6,0.00
2013-12-16,49,34,27,-100,-100,-100,0,0,100,0.00,40.00,0,0,3,0.00
2013-12-17,58,37,28,-100,-100,-100,0,0,100,0.00,40.00,0,0,0,0.00
2013-12-18,64,45,30,-100,-100,-100,0,0,100,0.00,40.00,0,0,3,0.00
2013-12-27,58,47,35,-100,-100,-100,0,0,100,0.00,40.00,1,0,6,0.00
2013-12-28,49,45,44,-100,-100,-100,0,0,100,0.00,40.00,2,0,4,0.00
2013-12-29,56,48,38,-100,-100,-100,0,0,100,0.00,40.00,0,0,4,0.00
2013-12-30,54,45,35,-100,-100,-100,0,0,100,0.00,40.00,0,0,0,0.00
2013-12-31,47,43,41,-100,-100,-100,0,0,100,0.00,40.00,3,0,6,0.00
2014-1-1,53,47,41,-100,-100,-100,0,0,100,0.00,40.00,0,0,0,0.00
2014-1-2,56,53,50,-100,-100,-100,0,0,100,0.00,40.00,0,0,3,0.00